Time,TemperatureF,DewpointF,PressureIn,WindDirection,WindDirectionDegrees,WindSpeedMPH,WindSpeedGustMPH,Humidity,HourlyPrecipIn,Conditions,Clouds,dailyrainin,SoftwareType,DateUTC
2013-01-03 00:02:00,29.1,6.0,30.23,NNW,330,1.0,4.0,37,0.00,,,0.00,WUHU216DAVISVP2,2013-01-03 08:02:00,
2013-01-03 00:07:00,28.7,5.7,30.23,NNW,330,3.0,3.0,37,0.00,,,0.00,WUHU216DAVISVP2,2013-01-03 08:07:00,
2013-01-03 00:12:00,27.2,4.7,30.23,NNW,330,3.0,4.0,38,0.00,,,0.00,WUHU216DAVISVP2,2013-01-03 08:12:00,
2013-01-03 00:18:00,26.6,5.9,30.23,NNW,330,3.0,4.0,41,0.00,,,0.00,WUHU216DAVISVP2,2013-01-03 08:18:00,
2013-01-03 00:23:00,27.9,7.6,30.23,NNW,330,3.0,4.0,42,0.00,,,0.00,WUHU216DAVISVP2,2013-01-03 08:23:00,
2013-01-03 00:28:00,28.2,6.8,30.24,NNW,330,3.0,4.0,40,0.00,,,0.00,WUHU216DAVISVP2,2013-01-03 08:28:00,
2013-01-03 00:33:00,27.2,6.0,30.24,NNW,330,3.0,4.0,40,0.00,,,0.00,WUHU216DAVISVP2,2013-01-03 08:33:00,
2013-01-03 00:38:00,28.3,6.5,30.24,NNW,330,3.0,5.0,39,0.00,,,0.00,WUHU216DAVISVP2,2013-01-03 08:38:00,
2013-01-03 00:43:00,28.5,5.9,30.24,NNW,330,4.0,5.0,38,0.00,,,0.00,WUHU216DAVISVP2,2013-01-03 08:43:00,
2013-01-03 00:49:00,27.4,5.5,30.24,NNW,330,0.0,6.0,39,0.00,,,0.00,WUHU216DAVISVP2,2013-01-03 08:49:00,
2013-01-03 00:54:00,27.0,5.7,30.24,NNW,330,4.0,6.0,40,0.00,,,0.00,WUHU216DAVISVP2,2013-01-03 08:54:00,
2013-01-03 00:59:00,27.6,6.8,30.24,NNW,330,5.0,7.0,41,0.00,,,0.00,WUHU216DAVISVP2,2013-01-03 08:59:00,
2013-01-03 01:04:00,28.3,6.8,30.24,NNW,330,5.0,7.0,40,0.00,,,0.00,WUHU216DAVISVP2,2013-01-03 09:04:00,
2013-01-03 01:09:00,28.1,6.1,30.24,NNW,330,5.0,7.0,39,0.00,,,0.00,WUHU216DAVISVP2,2013-01-03 09:09:00,
2013-01-03 01:14:00,28.1,6.7,30.24,NW,325,3.0,7.0,40,0.00,,,0.00,WUHU216DAVISVP2,2013-01-03 09:14:00,
2013-01-03 01:19:00,28.5,7.6,30.24,NW,325,3.0,6.0,41,0.00,,,0.00,WUHU216DAVISVP2,2013-01-03 09:19:00,
2013-01-03 01:24:00,29.6,7.6,30.24,NW,325,3.0,5.0,39,0.00,,,0.00,WUHU216DAVISVP2,2013-01-03 09:24:00,
2013-01-03 01:29:00,29.1,7.2,30.24,NW,325,1.0,5.0,39,0.00,,,0.00,WUHU216DAVISVP2,2013-01-03 09:29:00,
2013-01-03 01:34:00,28.4,6.4,30.24,NW,325,3.0,5.0,39,0.00,,,0.00,WUHU216DAVISVP2,2013-01-03 09:34:00,
2013-01-03 01:39:00,29.4,7.8,30.24,NW,325,5.0,5.0,40,0.00,,,0.00,WUHU216DAVISVP2,2013-01-03 09:39:00,
2013-01-03 01:44:00,30.6,8.4,30.24,NW,325,4.0,6.0,39,0.00,,,0.00,WUHU216DAVISVP2,2013-01-03 09:44:00,
2013-01-03 01:50:00,30.3,7.5,30.24,NW,325,3.0,6.0,38,0.00,,,0.00,WUHU216DAVISVP2,2013-01-03 09:50:00,
2013-01-03 01:55:00,29.8,7.6,30.24,NW,325,2.0,6.0,39,0.00,,,0.00,WUHU216DAVISVP2,2013-01-03 09:55:00,
2013-01-03 02:00:00,29.9,7.7,30.24,NW,325,3.0,5.0,39,0.00,,,0.00,WUHU216DAVISVP2,2013-01-03 10:00:00,
2013-01-03 02:05:00,29.9,7.9,30.24,NW,325,2.0,5.0,39,0.00,,,0.00,WUHU216DAVISVP2,2013-01-03 10:05:00,
2013-01-03 02:10:00,29.4,6.9,30.24,NW,325,2.0,5.0,38,0.00,,,0.00,WUHU216DAVISVP2,2013-01-03 10:10:00,
2013-01-03 02:15:00,29.3,7.2,30.23,NW,325,4.0,6.0,39,0.00,,,0.00,WUHU216DAVISVP2,2013-01-03 10:15:00,
2013-01-03 02:20:00,29.3,7.2,30.24,NW,325,4.0,6.0,39,0.00,,,0.00,WUHU216DAVISVP2,2013-01-03 10:20:00,
2013-01-03 02:25:00,29.9,7.1,30.23,NNW,340,6.0,7.0,38,0.00,,,0.00,WUHU216DAVISVP2,2013-01-03 10:25:00,
2013-01-03 02:30:00,28.6,5.4,30.23,NNW,340,4.0,7.0,37,0.00,,,0.00,WUHU216DAVISVP2,2013-01-03 10:30:00,
2013-01-03 02:35:00,28.6,7.1,30.23,NNW,340,4.0,7.0,40,0.00,,,0.00,WUHU216DAVISVP2,2013-01-03 10:35:00,
2013-01-03 02:41:00,29.1,5.8,30.23,NNW,340,3.0,7.0,37,0.00,,,0.00,WUHU216DAVISVP2,2013-01-03 10:41:00,
2013-01-03 02:46:00,28.6,6.5,30.23,NNW,340,4.0,5.0,39,0.00,,,0.00,WUHU216DAVISVP2,2013-01-03 10:46:00,
2013-01-03 02:51:00,29.1,7.0,30.23,NNW,331,4.0,6.0,39,0.00,,,0.00,WUHU216DAVISVP2,2013-01-03 10:51:00,
2013-01-03 02:56:00,30.2,8.0,30.23,NNW,331,2.0,6.0,39,0.00,,,0.00,WUHU216DAVISVP2,2013-01-03 10:56:00,
2013-01-03 03:01:00,28.7,4.9,30.23,NNW,331,5.0,6.0,36,0.00,,,0.00,WUHU216DAVISVP2,2013-01-03 11:01:00,
2013-01-03 03:07:00,27.4,5.5,30.23,NNW,331,4.0,6.0,39,0.00,,,0.00,WUHU216DAVISVP2,2013-01-03 11:07:00,
2013-01-03 03:12:00,27.0,6.2,30.23,NNW,332,6.0,7.0,41,0.00,,,0.00,WUHU216DAVISVP2,2013-01-03 11:12:00,
2013-01-03 03:17:00,27.5,5.6,30.23,NNW,333,6.0,7.0,39,0.00,,,0.00,WUHU216DAVISVP2,2013-01-03 11:17:00,
2013-01-03 03:22:00,26.1,5.4,30.23,NW,311,3.0,7.0,41,0.00,,,0.00,WUHU216DAVISVP2,2013-01-03 11:22:00,
2013-01-03 03:27:00,27.5,7.8,30.23,NW,325,4.0,7.0,43,0.00,,,0.00,WUHU216DAVISVP2,2013-01-03 11:27:00,
2013-01-03 03:32:00,27.8,6.4,30.22,NW,324,2.0,7.0,40,0.00,,,0.00,WUHU216DAVISVP2,2013-01-03 11:32:00,
2013-01-03 03:37:00,27.8,6.9,30.22,NW,324,3.0,6.0,41,0.00,,,0.00,WUHU216DAVISVP2,2013-01-03 11:37:00,
2013-01-03 03:43:00,28.6,7.1,30.23,NW,324,0.0,6.0,40,0.00,,,0.00,WUHU216DAVISVP2,2013-01-03 11:43:00,
2013-01-03 03:48:00,27.9,6.5,30.23,NW,324,3.0,5.0,40,0.00,,,0.00,WUHU216DAVISVP2,2013-01-03 11:48:00,
2013-01-03 03:54:00,29.0,8.2,30.23,NW,324,0.0,5.0,41,0.00,,,0.00,WUHU216DAVISVP2,2013-01-03 11:54:00,
2013-01-03 03:59:00,29.0,7.1,30.23,NW,324,0.0,5.0,39,0.00,,,0.00,WUHU216DAVISVP2,2013-01-03 11:59:00,
2013-01-03 04:04:00,28.1,5.7,30.23,NW,321,6.0,6.0,38,0.00,,,0.00,WUHU216DAVISVP2,2013-01-03 12:04:00,
2013-01-03 04:09:00,28.0,7.3,30.23,NW,307,4.0,7.0,41,0.00,,,0.00,WUHU216DAVISVP2,2013-01-03 12:09:00,
2013-01-03 04:14:00,27.8,6.4,30.23,NW,307,2.0,7.0,40,0.00,,,0.00,WUHU216DAVISVP2,2013-01-03 12:14:00,
2013-01-03 04:19:00,28.1,7.2,30.23,NW,307,3.0,7.0,41,0.00,,,0.00,WUHU216DAVISVP2,2013-01-03 12:19:00,
2013-01-03 04:24:00,27.9,6.5,30.23,NW,307,3.0,6.0,40,0.00,,,0.00,WUHU216DAVISVP2,2013-01-03 12:24:00,
2013-01-03 04:29:00,27.5,6.1,30.23,NW,307,1.0,5.0,40,0.00,,,0.00,WUHU216DAVISVP2,2013-01-03 12:29:00,
2013-01-03 04:34:00,27.7,6.9,30.24,NW,307,2.0,5.0,41,0.00,,,0.00,WUHU216DAVISVP2,2013-01-03 12:34:00,
2013-01-03 04:39:00,28.0,7.1,30.24,NW,307,2.0,5.0,41,0.00,,,0.00,WUHU216DAVISVP2,2013-01-03 12:39:00,
2013-01-03 04:44:00,28.4,8.0,30.24,NW,307,4.0,6.0,42,0.00,,,0.00,WUHU216DAVISVP2,2013-01-03 12:44:00,
2013-01-03 04:50:00,30.1,9.2,30.24,NW,315,6.0,7.0,41,0.00,,,0.00,WUHU216DAVISVP2,2013-01-03 12:50:00,
2013-01-03 04:55:00,29.9,7.3,30.24,NW,319,3.0,7.0,38,0.00,,,0.00,WUHU216DAVISVP2,2013-01-03 12:55:00,
2013-01-03 05:00:00,27.8,6.0,30.25,NW,319,3.0,7.0,39,0.00,,,0.00,WUHU216DAVISVP2,2013-01-03 13:00:00,
2013-01-03 05:05:00,27.1,7.0,30.25,NW,304,6.0,7.0,42,0.00,,,0.00,WUHU216DAVISVP2,2013-01-03 13:05:00,
2013-01-03 05:10:00,28.4,8.0,30.25,NNW,327,6.0,6.0,42,0.00,,,0.00,WUHU216DAVISVP2,2013-01-03 13:10:00,
2013-01-03 05:15:00,28.4,6.9,30.25,NNW,328,1.0,6.0,40,0.00,,,0.00,WUHU216DAVISVP2,2013-01-03 13:15:00,
2013-01-03 05:20:00,27.4,6.0,30.26,NNW,328,3.0,6.0,40,0.00,,,0.00,WUHU216DAVISVP2,2013-01-03 13:20:00,
2013-01-03 05:25:00,27.9,7.0,30.26,NNW,328,5.0,6.0,41,0.00,,,0.00,WUHU216DAVISVP2,2013-01-03 13:25:00,
2013-01-03 05:30:00,27.7,6.9,30.26,NNW,328,5.0,6.0,41,0.00,,,0.00,WUHU216DAVISVP2,2013-01-03 13:30:00,
2013-01-03 05:35:00,27.3,6.5,30.26,NNW,327,3.0,6.0,41,0.00,,,0.00,WUHU216DAVISVP2,2013-01-03 13:35:00,
2013-01-03 05:40:00,27.0,7.3,30.26,NNW,327,1.0,6.0,43,0.00,,,0.00,WUHU216DAVISVP2,2013-01-03 13:40:00,
2013-01-03 05:46:00,26.7,6.5,30.26,NNW,327,4.0,6.0,42,0.00,,,0.00,WUHU216DAVISVP2,2013-01-03 13:46:00,
2013-01-03 05:51:00,26.5,6.3,30.26,NNW,327,2.0,5.0,42,0.00,,,0.00,WUHU216DAVISVP2,2013-01-03 13:51:00,
2013-01-03 05:56:00,27.8,7.5,30.26,NNW,327,3.0,4.0,42,0.00,,,0.00,WUHU216DAVISVP2,2013-01-03 13:56:00,
2013-01-03 06:01:00,27.7,5.7,30.27,NNW,327,3.0,4.0,39,0.00,,,0.00,WUHU216DAVISVP2,2013-01-03 14:01:00,
2013-01-03 06:08:00,25.4,5.3,30.27,NNW,327,2.0,5.0,42,0.00,,,0.00,WUHU216DAVISVP2,2013-01-03 14:08:00,
2013-01-03 06:13:00,25.3,6.8,30.27,NNW,327,5.0,5.0,45,0.00,,,0.00,WUHU216DAVISVP2,2013-01-03 14:13:00,
2013-01-03 06:18:00,25.9,6.8,30.27,NNW,327,3.0,6.0,44,0.00,,,0.00,WUHU216DAVISVP2,2013-01-03 14:18:00,
2013-01-03 06:23:00,27.0,7.8,30.27,NNW,327,3.0,6.0,44,0.00,,,0.00,WUHU216DAVISVP2,2013-01-03 14:23:00,
2013-01-03 06:28:00,28.1,7.2,30.27,NNW,327,4.0,6.0,41,0.00,,,0.00,WUHU216DAVISVP2,2013-01-03 14:28:00,
2013-01-03 06:34:00,28.4,7.5,30.27,NNW,327,3.0,6.0,41,0.00,,,0.00,WUHU216DAVISVP2,2013-01-03 14:34:00,
2013-01-03 06:39:00,28.9,7.9,30.27,NNW,327,6.0,6.0,41,0.00,,,0.00,WUHU216DAVISVP2,2013-01-03 14:39:00,
2013-01-03 06:44:00,28.9,8.5,30.27,NW,326,3.0,6.0,42,0.00,,,0.00,WUHU216DAVISVP2,2013-01-03 14:44:00,
2013-01-03 06:49:00,28.7,6.6,30.27,NW,326,3.0,6.0,39,0.00,,,0.00,WUHU216DAVISVP2,2013-01-03 14:49:00,
2013-01-03 06:54:00,27.9,7.6,30.27,NW,326,3.0,6.0,42,0.00,,,0.00,WUHU216DAVISVP2,2013-01-03 14:54:00,
2013-01-03 06:59:00,27.5,6.1,30.28,NW,326,2.0,6.0,40,0.00,,,0.00,WUHU216DAVISVP2,2013-01-03 14:59:00,
2013-01-03 07:04:00,26.2,6.6,30.28,NW,326,3.0,5.0,43,0.00,,,0.00,WUHU216DAVISVP2,2013-01-03 15:04:00,
2013-01-03 07:09:00,27.0,8.3,30.28,NW,326,2.0,5.0,45,0.00,,,0.00,WUHU216DAVISVP2,2013-01-03 15:09:00,
2013-01-03 07:14:00,27.7,7.9,30.28,NW,326,3.0,5.0,43,0.00,,,0.00,WUHU216DAVISVP2,2013-01-03 15:14:00,
2013-01-03 07:19:00,28.7,9.0,30.28,NW,326,3.0,5.0,43,0.00,,,0.00,WUHU216DAVISVP2,2013-01-03 15:19:00,
2013-01-03 07:24:00,28.4,7.7,30.28,NW,326,3.0,6.0,41,0.00,,,0.00,WUHU216DAVISVP2,2013-01-03 15:24:00,
2013-01-03 07:29:00,27.7,8.1,30.29,NW,326,3.0,6.0,43,0.00,,,0.00,WUHU216DAVISVP2,2013-01-03 15:29:00,
2013-01-03 07:35:00,27.8,8.0,30.29,NW,326,1.0,6.0,43,0.00,,,0.00,WUHU216DAVISVP2,2013-01-03 15:35:00,
2013-01-03 07:40:00,28.2,8.4,30.29,NW,326,3.0,6.0,43,0.00,,,0.00,WUHU216DAVISVP2,2013-01-03 15:40:00,
2013-01-03 07:45:00,29.0,9.1,30.30,NNW,329,2.0,5.0,43,0.00,,,0.00,WUHU216DAVISVP2,2013-01-03 15:45:00,
2013-01-03 07:50:00,29.9,9.4,30.30,NNW,329,2.0,4.0,42,0.00,,,0.00,WUHU216DAVISVP2,2013-01-03 15:50:00,
2013-01-03 07:55:00,30.7,10.1,30.30,NNW,329,1.0,4.0,42,0.00,,,0.00,WUHU216DAVISVP2,2013-01-03 15:55:00,
2013-01-03 08:00:00,31.6,9.8,30.30,NNW,329,0.0,4.0,40,0.00,,,0.00,WUHU216DAVISVP2,2013-01-03 16:00:00,
2013-01-03 08:05:00,32.5,10.1,30.30,NNW,329,2.0,4.0,39,0.00,,,0.00,WUHU216DAVISVP2,2013-01-03 16:05:00,
2013-01-03 08:10:00,33.4,10.3,30.31,NNW,329,0.0,3.0,38,0.00,,,0.00,WUHU216DAVISVP2,2013-01-03 16:10:00,
2013-01-03 08:15:00,34.0,10.2,30.31,NNW,329,0.0,3.0,37,0.00,,,0.00,WUHU216DAVISVP2,2013-01-03 16:15:00,
2013-01-03 08:20:00,34.7,10.2,30.31,NNW,329,1.0,3.0,36,0.00,,,0.00,WUHU216DAVISVP2,2013-01-03 16:20:00,
2013-01-03 08:26:00,35.5,10.3,30.31,NNW,329,0.0,2.0,35,0.00,,,0.00,WUHU216DAVISVP2,2013-01-03 16:26:00,
2013-01-03 08:31:00,36.2,10.3,30.31,NNW,329,0.0,2.0,34,0.00,,,0.00,WUHU216DAVISVP2,2013-01-03 16:31:00,
2013-01-03 08:36:00,36.9,10.9,30.32,NNW,329,0.0,2.0,34,0.00,,,0.00,WUHU216DAVISVP2,2013-01-03 16:36:00,
2013-01-03 08:41:00,37.8,10.3,30.32,NNW,329,0.0,1.0,32,0.00,,,0.00,WUHU216DAVISVP2,2013-01-03 16:41:00,
2013-01-03 08:46:00,38.7,11.1,30.32,NNW,329,0.0,1.0,32,0.00,,,0.00,WUHU216DAVISVP2,2013-01-03 16:46:00,
2013-01-03 08:51:00,39.7,11.3,30.32,NNW,329,0.0,1.0,31,0.00,,,0.00,WUHU216DAVISVP2,2013-01-03 16:51:00,
2013-01-03 08:56:00,40.7,10.7,30.33,North,5,2.0,3.0,29,0.00,,,0.00,WUHU216DAVISVP2,2013-01-03 16:56:00,
2013-01-03 09:01:00,40.5,10.7,30.33,NNE,20,3.0,4.0,29,0.00,,,0.00,WUHU216DAVISVP2,2013-01-03 17:01:00,
2013-01-03 09:06:00,40.6,10.6,30.33,NNE,20,2.0,4.0,29,0.00,,,0.00,WUHU216DAVISVP2,2013-01-03 17:06:00,
2013-01-03 09:11:00,41.2,11.1,30.33,NNE,20,2.0,4.0,29,0.00,,,0.00,WUHU216DAVISVP2,2013-01-03 17:11:00,
2013-01-03 09:17:00,42.0,11.2,30.33,NNE,20,0.0,4.0,28,0.00,,,0.00,WUHU216DAVISVP2,2013-01-03 17:17:00,
2013-01-03 09:22:00,42.9,11.0,30.34,NNE,20,2.0,3.0,27,0.00,,,0.00,WUHU216DAVISVP2,2013-01-03 17:22:00,
2013-01-03 09:27:00,43.6,10.8,30.34,NNE,20,0.0,3.0,26,0.00,,,0.00,WUHU216DAVISVP2,2013-01-03 17:27:00,
2013-01-03 09:32:00,44.5,10.7,30.34,NNE,20,0.0,3.0,25,0.00,,,0.00,WUHU216DAVISVP2,2013-01-03 17:32:00,
2013-01-03 09:38:00,45.5,11.5,30.34,NNE,20,0.0,3.0,25,0.00,,,0.00,WUHU216DAVISVP2,2013-01-03 17:38:00,
2013-01-03 09:43:00,46.4,11.4,30.34,NNE,20,0.0,2.0,24,0.00,,,0.00,WUHU216DAVISVP2,2013-01-03 17:43:00,
2013-01-03 09:48:00,47.0,10.1,30.34,NNE,20,3.0,3.0,22,0.00,,,0.00,WUHU216DAVISVP2,2013-01-03 17:48:00,
2013-01-03 09:53:00,46.8,10.8,30.34,NNE,20,2.0,4.0,23,0.00,,,0.00,WUHU216DAVISVP2,2013-01-03 17:53:00,
2013-01-03 09:58:00,46.5,10.6,30.34,NNE,20,2.0,4.0,23,0.00,,,0.00,WUHU216DAVISVP2,2013-01-03 17:58:00,
2013-01-03 10:03:00,46.4,10.5,30.35,NNE,20,2.0,4.0,23,0.00,,,0.00,WUHU216DAVISVP2,2013-01-03 18:03:00,
2013-01-03 10:08:00,46.6,9.7,30.35,NNE,26,2.0,4.0,22,0.00,,,0.00,WUHU216DAVISVP2,2013-01-03 18:08:00,
2013-01-03 10:13:00,46.7,9.7,30.35,NNE,28,3.0,4.0,22,0.00,,,0.00,WUHU216DAVISVP2,2013-01-03 18:13:00,
2013-01-03 10:19:00,47.1,10.1,30.35,NNE,32,3.0,5.0,22,0.00,,,0.00,WUHU216DAVISVP2,2013-01-03 18:19:00,
2013-01-03 10:24:00,47.2,9.1,30.35,NE,44,4.0,5.0,21,0.00,,,0.00,WUHU216DAVISVP2,2013-01-03 18:24:00,
2013-01-03 10:29:00,47.7,8.5,30.35,NE,44,3.0,5.0,20,0.00,,,0.00,WUHU216DAVISVP2,2013-01-03 18:29:00,
2013-01-03 10:34:00,48.2,8.9,30.34,NE,44,1.0,5.0,20,0.00,,,0.00,WUHU216DAVISVP2,2013-01-03 18:34:00,
2013-01-03 10:39:00,48.8,9.4,30.34,NE,44,2.0,5.0,20,0.00,,,0.00,WUHU216DAVISVP2,2013-01-03 18:39:00,
2013-01-03 10:44:00,49.7,9.0,30.34,NE,44,2.0,4.0,19,0.00,,,0.00,WUHU216DAVISVP2,2013-01-03 18:44:00,
2013-01-03 10:49:00,50.4,8.4,30.34,NE,44,2.0,4.0,18,0.00,,,0.00,WUHU216DAVISVP2,2013-01-03 18:49:00,
2013-01-03 10:55:00,50.9,8.8,30.33,NE,44,3.0,5.0,18,0.00,,,0.00,WUHU216DAVISVP2,2013-01-03 18:55:00,
2013-01-03 11:00:00,51.0,7.6,30.33,ESE,120,1.0,7.0,17,0.00,,,0.00,WUHU216DAVISVP2,2013-01-03 19:00:00,
2013-01-03 11:05:00,51.0,8.9,30.33,ESE,120,0.0,7.0,18,0.00,,,0.00,WUHU216DAVISVP2,2013-01-03 19:05:00,
2013-01-03 11:10:00,51.3,7.9,30.32,ESE,120,1.0,7.0,17,0.00,,,0.00,WUHU216DAVISVP2,2013-01-03 19:10:00,
2013-01-03 11:15:00,51.2,7.8,30.32,ESE,120,4.0,5.0,17,0.00,,,0.00,WUHU216DAVISVP2,2013-01-03 19:15:00,
2013-01-03 11:51:00,51.9,7.0,30.31,ESE,123,3.0,8.0,16,0.00,,,0.00,WUHU216DAVISVP2,2013-01-03 19:51:00,
2013-01-03 11:56:00,52.0,7.1,30.31,SE,130,1.0,9.0,16,0.00,,,0.00,WUHU216DAVISVP2,2013-01-03 19:56:00,
2013-01-03 12:01:00,52.1,7.2,30.30,SE,131,4.0,9.0,16,0.00,,,0.00,WUHU216DAVISVP2,2013-01-03 20:01:00,
2013-01-03 12:06:00,52.0,7.1,30.30,SE,130,3.0,9.0,16,0.00,,,0.00,WUHU216DAVISVP2,2013-01-03 20:06:00,
2013-01-03 12:12:00,51.8,8.3,30.30,SE,130,3.0,7.0,17,0.00,,,0.00,WUHU216DAVISVP2,2013-01-03 20:12:00,
2013-01-03 12:17:00,52.1,7.2,30.30,SE,130,6.0,7.0,16,0.00,,,0.00,WUHU216DAVISVP2,2013-01-03 20:17:00,
2013-01-03 12:22:00,51.8,7.0,30.29,SE,134,4.0,7.0,16,0.00,,,0.00,WUHU216DAVISVP2,2013-01-03 20:22:00,
2013-01-03 12:27:00,52.1,7.2,30.29,SE,134,3.0,7.0,16,0.00,,,0.00,WUHU216DAVISVP2,2013-01-03 20:27:00,
2013-01-03 12:32:00,52.3,7.4,30.29,SE,133,4.0,7.0,16,0.00,,,0.00,WUHU216DAVISVP2,2013-01-03 20:32:00,
2013-01-03 12:37:00,52.4,7.4,30.28,SE,132,0.0,6.0,16,0.00,,,0.00,WUHU216DAVISVP2,2013-01-03 20:37:00,
2013-01-03 12:42:00,52.7,7.7,30.28,SE,130,3.0,7.0,16,0.02,,,0.02,WUHU216DAVISVP2,2013-01-03 20:42:00,
2013-01-03 12:47:00,52.7,7.7,30.28,SE,138,2.0,8.0,16,0.02,,,0.02,WUHU216DAVISVP2,2013-01-03 20:47:00,
2013-01-03 12:53:00,52.5,7.5,30.28,SSE,159,5.0,8.0,16,0.02,,,0.02,WUHU216DAVISVP2,2013-01-03 20:53:00,
2013-01-03 12:58:00,52.6,6.2,30.28,SE,138,6.0,8.0,15,0.02,,,0.02,WUHU216DAVISVP2,2013-01-03 20:58:00,
2013-01-03 13:03:00,52.7,7.7,30.28,SE,136,3.0,8.0,16,0.02,,,0.02,WUHU216DAVISVP2,2013-01-03 21:03:00,
2013-01-03 13:08:00,53.1,6.6,30.27,SE,131,3.0,8.0,15,0.02,,,0.02,WUHU216DAVISVP2,2013-01-03 21:08:00,
2013-01-03 13:14:00,53.0,6.5,30.27,SE,138,1.0,9.0,15,0.02,,,0.02,WUHU216DAVISVP2,2013-01-03 21:14:00,
2013-01-03 13:19:00,53.0,6.5,30.27,SE,138,2.0,9.0,15,0.02,,,0.02,WUHU216DAVISVP2,2013-01-03 21:19:00,
2013-01-03 13:24:00,53.1,6.6,30.27,SE,138,1.0,9.0,15,0.02,,,0.02,WUHU216DAVISVP2,2013-01-03 21:24:00,
2013-01-03 13:29:00,53.5,6.9,30.26,SE,138,3.0,9.0,15,0.02,,,0.02,WUHU216DAVISVP2,2013-01-03 21:29:00,
2013-01-03 13:34:00,53.7,7.1,30.26,SE,138,0.0,5.0,15,0.02,,,0.02,WUHU216DAVISVP2,2013-01-03 21:34:00,
2013-01-03 13:40:00,53.8,7.1,30.26,SSW,198,1.0,8.0,15,0.02,,,0.02,WUHU216DAVISVP2,2013-01-03 21:40:00,
2013-01-03 13:45:00,53.5,6.9,30.26,SSW,192,3.0,8.0,15,0.00,,,0.02,WUHU216DAVISVP2,2013-01-03 21:45:00,
2013-01-03 13:50:00,53.2,6.7,30.26,South,182,5.0,8.0,15,0.00,,,0.02,WUHU216DAVISVP2,2013-01-03 21:50:00,
2013-01-03 13:55:00,53.2,6.7,30.26,South,184,1.0,8.0,15,0.00,,,0.02,WUHU216DAVISVP2,2013-01-03 21:55:00,
2013-01-03 14:00:00,53.8,7.1,30.25,SW,223,3.0,7.0,15,0.00,,,0.02,WUHU216DAVISVP2,2013-01-03 22:00:00,
2013-01-03 14:05:00,53.6,5.5,30.26,South,170,4.0,8.0,14,0.00,,,0.02,WUHU216DAVISVP2,2013-01-03 22:05:00,
2013-01-03 14:10:00,53.8,5.6,30.26,South,170,0.0,8.0,14,0.00,,,0.02,WUHU216DAVISVP2,2013-01-03 22:10:00,
2013-01-03 14:15:00,54.0,5.8,30.25,South,171,1.0,8.0,14,0.00,,,0.02,WUHU216DAVISVP2,2013-01-03 22:15:00,
2013-01-03 14:20:00,54.4,6.1,30.25,South,171,1.0,8.0,14,0.00,,,0.02,WUHU216DAVISVP2,2013-01-03 22:20:00,
2013-01-03 14:25:00,54.8,6.4,30.25,South,173,1.0,6.0,14,0.00,,,0.02,WUHU216DAVISVP2,2013-01-03 22:25:00,
2013-01-03 14:31:00,54.7,6.3,30.26,South,173,2.0,6.0,14,0.00,,,0.02,WUHU216DAVISVP2,2013-01-03 22:31:00,
2013-01-03 14:36:00,54.7,6.3,30.25,South,173,0.0,6.0,14,0.00,,,0.02,WUHU216DAVISVP2,2013-01-03 22:36:00,
2013-01-03 14:41:00,55.1,6.6,30.25,South,172,1.0,6.0,14,0.00,,,0.02,WUHU216DAVISVP2,2013-01-03 22:41:00,
2013-01-03 14:46:00,55.4,6.9,30.25,South,172,0.0,5.0,14,0.00,,,0.02,WUHU216DAVISVP2,2013-01-03 22:46:00,
2013-01-03 14:51:00,55.5,5.3,30.25,South,175,0.0,5.0,13,0.00,,,0.02,WUHU216DAVISVP2,2013-01-03 22:51:00,
2013-01-03 14:56:00,55.7,5.5,30.25,South,175,2.0,5.0,13,0.00,,,0.02,WUHU216DAVISVP2,2013-01-03 22:56:00,
2013-01-03 15:01:00,55.2,5.1,30.25,South,173,3.0,5.0,13,0.00,,,0.02,WUHU216DAVISVP2,2013-01-03 23:01:00,
2013-01-03 15:06:00,54.9,6.5,30.25,South,173,2.0,5.0,14,0.00,,,0.02,WUHU216DAVISVP2,2013-01-03 23:06:00,
2013-01-03 15:11:00,54.9,4.8,30.25,SSW,192,4.0,8.0,13,0.00,,,0.02,WUHU216DAVISVP2,2013-01-03 23:11:00,
2013-01-03 15:16:00,54.8,6.4,30.25,SSW,192,1.0,8.0,14,0.00,,,0.02,WUHU216DAVISVP2,2013-01-03 23:16:00,
2013-01-03 15:22:00,54.9,6.5,30.25,South,181,4.0,8.0,14,0.00,,,0.02,WUHU216DAVISVP2,2013-01-03 23:22:00,
2013-01-03 15:27:00,54.8,4.7,30.25,South,178,5.0,8.0,13,0.00,,,0.02,WUHU216DAVISVP2,2013-01-03 23:27:00,
2013-01-03 15:32:00,54.6,6.2,30.25,South,176,4.0,8.0,14,0.00,,,0.02,WUHU216DAVISVP2,2013-01-03 23:32:00,
2013-01-03 15:37:00,54.8,4.7,30.25,South,176,5.0,8.0,13,0.00,,,0.02,WUHU216DAVISVP2,2013-01-03 23:37:00,
2013-01-03 15:42:00,54.6,4.6,30.25,South,179,2.0,8.0,13,0.00,,,0.02,WUHU216DAVISVP2,2013-01-03 23:42:00,
2013-01-03 15:47:00,54.5,6.2,30.25,South,180,2.0,8.0,14,0.00,,,0.02,WUHU216DAVISVP2,2013-01-03 23:47:00,
2013-01-03 15:52:00,54.5,6.2,30.25,South,180,2.0,7.0,14,0.00,,,0.02,WUHU216DAVISVP2,2013-01-03 23:52:00,
2013-01-03 15:57:00,54.5,6.2,30.25,South,179,1.0,7.0,14,0.00,,,0.02,WUHU216DAVISVP2,2013-01-03 23:57:00,
2013-01-03 16:02:00,54.4,6.1,30.25,South,179,2.0,7.0,14,0.00,,,0.02,WUHU216DAVISVP2,2013-01-04 00:02:00,
2013-01-03 16:07:00,54.2,5.9,30.25,South,179,0.0,3.0,14,0.00,,,0.02,WUHU216DAVISVP2,2013-01-04 00:07:00,
2013-01-03 16:12:00,54.3,6.0,30.25,South,179,0.0,3.0,14,0.00,,,0.02,WUHU216DAVISVP2,2013-01-04 00:12:00,
2013-01-03 16:18:00,54.1,5.8,30.25,South,179,1.0,3.0,14,0.00,,,0.02,WUHU216DAVISVP2,2013-01-04 00:18:00,
2013-01-03 16:23:00,53.7,5.5,30.25,South,179,0.0,4.0,14,0.00,,,0.02,WUHU216DAVISVP2,2013-01-04 00:23:00,
2013-01-03 16:28:00,52.5,4.6,30.25,South,179,0.0,4.0,14,0.00,,,0.02,WUHU216DAVISVP2,2013-01-04 00:28:00,
2013-01-03 16:33:00,51.2,5.0,30.26,South,179,0.0,4.0,15,0.00,,,0.02,WUHU216DAVISVP2,2013-01-04 00:33:00,
2013-01-03 16:38:00,49.7,5.2,30.26,West,261,5.0,6.0,16,0.00,,,0.02,WUHU216DAVISVP2,2013-01-04 00:38:00,
2013-01-03 16:43:00,48.3,5.4,30.26,West,273,5.0,6.0,17,0.00,,,0.02,WUHU216DAVISVP2,2013-01-04 00:43:00,
2013-01-03 16:48:00,48.5,5.6,30.26,West,273,3.0,6.0,17,0.00,,,0.02,WUHU216DAVISVP2,2013-01-04 00:48:00,
2013-01-03 16:53:00,48.2,5.4,30.26,West,273,0.0,6.0,17,0.00,,,0.02,WUHU216DAVISVP2,2013-01-04 00:53:00,
2013-01-03 16:59:00,47.2,4.5,30.26,West,273,3.0,6.0,17,0.00,,,0.02,WUHU216DAVISVP2,2013-01-04 00:59:00,
2013-01-03 17:04:00,46.2,5.0,30.26,West,273,4.0,5.0,18,0.00,,,0.02,WUHU216DAVISVP2,2013-01-04 01:04:00,
2013-01-03 17:09:00,45.9,4.7,30.26,WNW,286,3.0,5.0,18,0.00,,,0.02,WUHU216DAVISVP2,2013-01-04 01:09:00,
2013-01-03 17:14:00,44.9,5.1,30.26,WNW,286,2.0,5.0,19,0.00,,,0.02,WUHU216DAVISVP2,2013-01-04 01:14:00,
2013-01-03 17:19:00,43.8,4.1,30.27,WNW,286,3.0,5.0,19,0.00,,,0.02,WUHU216DAVISVP2,2013-01-04 01:19:00,
2013-01-03 17:24:00,43.0,4.6,30.27,WNW,298,3.0,5.0,20,0.00,,,0.02,WUHU216DAVISVP2,2013-01-04 01:24:00,
2013-01-03 17:29:00,42.5,5.2,30.27,NNW,329,5.0,7.0,21,0.00,,,0.02,WUHU216DAVISVP2,2013-01-04 01:29:00,
2013-01-03 17:34:00,42.2,5.0,30.27,NNW,330,4.0,7.0,21,0.00,,,0.02,WUHU216DAVISVP2,2013-01-04 01:34:00,
2013-01-03 17:39:00,41.8,5.6,30.28,NNW,329,4.0,7.0,22,0.00,,,0.02,WUHU216DAVISVP2,2013-01-04 01:39:00,
2013-01-03 17:44:00,41.8,5.6,30.28,NNW,333,7.0,7.0,22,0.00,,,0.02,WUHU216DAVISVP2,2013-01-04 01:44:00,
2013-01-03 17:50:00,41.8,6.6,30.28,NNW,333,4.0,7.0,23,0.00,,,0.02,WUHU216DAVISVP2,2013-01-04 01:50:00,
2013-01-03 17:55:00,41.1,6.0,30.28,NNW,336,6.0,7.0,23,0.00,,,0.02,WUHU216DAVISVP2,2013-01-04 01:55:00,
2013-01-03 18:00:00,40.5,6.4,30.28,NNW,336,5.0,8.0,24,0.00,,,0.02,WUHU216DAVISVP2,2013-01-04 02:00:00,
2013-01-03 18:05:00,40.3,7.1,30.29,NNW,341,6.0,8.0,25,0.00,,,0.02,WUHU216DAVISVP2,2013-01-04 02:05:00,
2013-01-03 18:10:00,40.3,7.1,30.29,NNW,346,7.0,8.0,25,0.00,,,0.02,WUHU216DAVISVP2,2013-01-04 02:10:00,
2013-01-03 18:15:00,40.0,6.8,30.29,North,351,5.0,8.0,25,0.00,,,0.02,WUHU216DAVISVP2,2013-01-04 02:15:00,
2013-01-03 18:20:00,39.1,6.1,30.29,North,351,2.0,8.0,25,0.00,,,0.02,WUHU216DAVISVP2,2013-01-04 02:20:00,
2013-01-03 18:25:00,38.3,6.2,30.29,North,351,2.0,8.0,26,0.00,,,0.02,WUHU216DAVISVP2,2013-01-04 02:25:00,
2013-01-03 18:30:00,38.0,6.8,30.29,North,351,2.0,7.0,27,0.00,,,0.02,WUHU216DAVISVP2,2013-01-04 02:30:00,
2013-01-03 18:35:00,37.3,6.2,30.29,North,355,4.0,7.0,27,0.00,,,0.02,WUHU216DAVISVP2,2013-01-04 02:35:00,
2013-01-03 18:41:00,37.5,6.3,30.29,North,355,4.0,7.0,27,0.00,,,0.02,WUHU216DAVISVP2,2013-01-04 02:41:00,
2013-01-03 18:46:00,37.2,6.1,30.29,North,355,1.0,7.0,27,0.00,,,0.02,WUHU216DAVISVP2,2013-01-04 02:46:00,
2013-01-03 18:51:00,36.2,6.0,30.29,North,355,2.0,7.0,28,0.00,,,0.02,WUHU216DAVISVP2,2013-01-04 02:51:00,
2013-01-03 18:56:00,36.1,5.9,30.29,North,355,3.0,7.0,28,0.00,,,0.02,WUHU216DAVISVP2,2013-01-04 02:56:00,
2013-01-03 19:01:00,36.4,6.9,30.30,North,355,5.0,5.0,29,0.00,,,0.02,WUHU216DAVISVP2,2013-01-04 03:01:00,
2013-01-03 19:06:00,36.4,6.9,30.30,North,355,3.0,5.0,29,0.00,,,0.02,WUHU216DAVISVP2,2013-01-04 03:06:00,
2013-01-03 19:11:00,36.5,6.3,30.30,North,350,2.0,5.0,28,0.00,,,0.02,WUHU216DAVISVP2,2013-01-04 03:11:00,
2013-01-03 19:16:00,36.8,7.3,30.30,North,350,3.0,5.0,29,0.00,,,0.02,WUHU216DAVISVP2,2013-01-04 03:16:00,
2013-01-03 19:21:00,37.0,6.9,30.30,North,350,2.0,5.0,28,0.00,,,0.02,WUHU216DAVISVP2,2013-01-04 03:21:00,
2013-01-03 19:26:00,36.8,6.5,30.30,North,350,0.0,5.0,28,0.00,,,0.02,WUHU216DAVISVP2,2013-01-04 03:26:00,
2013-01-03 19:32:00,36.0,5.0,30.30,North,350,3.0,4.0,27,0.00,,,0.02,WUHU216DAVISVP2,2013-01-04 03:32:00,
2013-01-03 19:37:00,34.5,5.3,30.30,North,350,3.0,4.0,29,0.00,,,0.02,WUHU216DAVISVP2,2013-01-04 03:37:00,
2013-01-03 19:42:00,35.0,6.6,30.31,North,350,1.0,4.0,30,0.00,,,0.02,WUHU216DAVISVP2,2013-01-04 03:42:00,
2013-01-03 19:47:00,35.1,6.7,30.31,North,350,2.0,4.0,30,0.00,,,0.02,WUHU216DAVISVP2,2013-01-04 03:47:00,
2013-01-03 19:52:00,34.5,5.3,30.31,North,350,0.0,4.0,29,0.00,,,0.02,WUHU216DAVISVP2,2013-01-04 03:52:00,
2013-01-03 19:57:00,34.3,6.5,30.31,North,350,3.0,4.0,31,0.00,,,0.02,WUHU216DAVISVP2,2013-01-04 03:57:00,
2013-01-03 20:02:00,34.2,6.7,30.31,North,355,6.0,8.0,31,0.00,,,0.02,WUHU216DAVISVP2,2013-01-04 04:02:00,
2013-01-03 20:07:00,34.2,6.5,30.31,North,350,7.0,8.0,31,0.00,,,0.02,WUHU216DAVISVP2,2013-01-04 04:07:00,
2013-01-03 20:12:00,34.9,7.1,30.31,North,351,5.0,8.0,31,0.00,,,0.02,WUHU216DAVISVP2,2013-01-04 04:12:00,
2013-01-03 20:17:00,35.7,7.1,30.31,North,351,5.0,8.0,30,0.00,,,0.02,WUHU216DAVISVP2,2013-01-04 04:17:00,
2013-01-03 20:23:00,35.8,7.3,30.31,North,351,1.0,8.0,30,0.00,,,0.02,WUHU216DAVISVP2,2013-01-04 04:23:00,
2013-01-03 20:28:00,35.5,6.9,30.31,North,351,6.0,8.0,30,0.00,,,0.02,WUHU216DAVISVP2,2013-01-04 04:28:00,
2013-01-03 20:33:00,34.9,6.4,30.31,North,350,5.0,7.0,30,0.00,,,0.02,WUHU216DAVISVP2,2013-01-04 04:33:00,
2013-01-03 20:38:00,34.3,5.8,30.32,NNW,346,4.0,7.0,30,0.00,,,0.02,WUHU216DAVISVP2,2013-01-04 04:38:00,
2013-01-03 20:44:00,34.1,6.6,30.32,NNW,346,6.0,7.0,31,0.00,,,0.02,WUHU216DAVISVP2,2013-01-04 04:44:00,
2013-01-03 20:49:00,34.1,6.6,30.31,NNW,346,5.0,7.0,31,0.00,,,0.02,WUHU216DAVISVP2,2013-01-04 04:49:00,
2013-01-03 20:54:00,34.0,6.3,30.32,NNW,342,5.0,7.0,31,0.00,,,0.02,WUHU216DAVISVP2,2013-01-04 04:54:00,
2013-01-03 20:59:00,34.2,6.5,30.32,NNW,347,6.0,7.0,31,0.00,,,0.02,WUHU216DAVISVP2,2013-01-04 04:59:00,
2013-01-03 21:04:00,33.9,6.2,30.32,NNW,340,6.0,8.0,31,0.00,,,0.02,WUHU216DAVISVP2,2013-01-04 05:04:00,
2013-01-03 21:09:00,34.2,6.5,30.32,NNW,341,5.0,8.0,31,0.00,,,0.02,WUHU216DAVISVP2,2013-01-04 05:09:00,
2013-01-03 21:14:00,34.2,6.5,30.32,NNW,346,5.0,8.0,31,0.00,,,0.02,WUHU216DAVISVP2,2013-01-04 05:14:00,
2013-01-03 21:19:00,34.4,5.9,30.32,NNW,346,2.0,8.0,30,0.00,,,0.02,WUHU216DAVISVP2,2013-01-04 05:19:00,
2013-01-03 21:24:00,33.7,6.0,30.32,NNW,346,2.0,8.0,31,0.00,,,0.02,WUHU216DAVISVP2,2013-01-04 05:24:00,
2013-01-03 21:29:00,33.6,6.6,30.32,NNW,346,3.0,6.0,32,0.00,,,0.02,WUHU216DAVISVP2,2013-01-04 05:29:00,
2013-01-03 21:35:00,34.0,6.3,30.32,NNW,345,2.0,5.0,31,0.00,,,0.02,WUHU216DAVISVP2,2013-01-04 05:35:00,
2013-01-03 21:40:00,34.2,6.5,30.33,NNW,345,1.0,4.0,31,0.00,,,0.02,WUHU216DAVISVP2,2013-01-04 05:40:00,
2013-01-03 21:45:00,32.9,3.9,30.33,NNW,345,4.0,5.0,29,0.00,,,0.02,WUHU216DAVISVP2,2013-01-04 05:45:00,
2013-01-03 21:50:00,30.9,3.6,30.33,NNW,345,4.0,5.0,31,0.00,,,0.02,WUHU216DAVISVP2,2013-01-04 05:50:00,
2013-01-03 21:55:00,29.8,3.3,30.33,NNW,345,4.0,5.0,32,0.00,,,0.02,WUHU216DAVISVP2,2013-01-04 05:55:00,
2013-01-03 22:00:00,30.1,3.7,30.33,NNW,345,3.0,5.0,32,0.00,,,0.02,WUHU216DAVISVP2,2013-01-04 06:00:00,
2013-01-03 22:05:00,29.8,4.1,30.33,NNW,345,2.0,5.0,33,0.00,,,0.02,WUHU216DAVISVP2,2013-01-04 06:05:00,
2013-01-03 22:10:00,29.2,4.1,30.33,NNW,345,4.0,5.0,34,0.00,,,0.02,WUHU216DAVISVP2,2013-01-04 06:10:00,
2013-01-03 22:15:00,29.3,4.8,30.34,NNW,345,1.0,5.0,35,0.00,,,0.02,WUHU216DAVISVP2,2013-01-04 06:15:00,
2013-01-03 22:20:00,28.9,4.0,30.33,NNW,345,3.0,5.0,34,0.00,,,0.02,WUHU216DAVISVP2,2013-01-04 06:20:00,
2013-01-03 22:26:00,27.9,3.1,30.33,NNW,345,3.0,5.0,34,0.00,,,0.02,WUHU216DAVISVP2,2013-01-04 06:26:00,
2013-01-03 22:31:00,26.9,2.0,30.33,NNW,345,4.0,4.0,34,0.00,,,0.02,WUHU216DAVISVP2,2013-01-04 06:31:00,
2013-01-03 22:36:00,26.5,2.9,30.33,NNW,345,4.0,5.0,36,0.00,,,0.02,WUHU216DAVISVP2,2013-01-04 06:36:00,
2013-01-03 22:41:00,28.9,5.0,30.33,NNW,343,5.0,6.0,36,0.00,,,0.02,WUHU216DAVISVP2,2013-01-04 06:41:00,
2013-01-03 22:46:00,28.8,3.3,30.33,NNW,343,2.0,6.0,33,0.00,,,0.02,WUHU216DAVISVP2,2013-01-04 06:46:00,
2013-01-03 22:51:00,28.5,4.1,30.33,NNW,342,4.0,6.0,35,0.00,,,0.02,WUHU216DAVISVP2,2013-01-04 06:51:00,
2013-01-03 22:56:00,29.0,4.5,30.33,NNW,342,3.0,6.0,35,0.00,,,0.02,WUHU216DAVISVP2,2013-01-04 06:56:00,
2013-01-03 23:01:00,29.9,4.7,30.33,NNW,338,5.0,5.0,34,0.00,,,0.02,WUHU216DAVISVP2,2013-01-04 07:01:00,
2013-01-03 23:06:00,30.6,4.0,30.33,NNW,332,5.0,6.0,32,0.00,,,0.02,WUHU216DAVISVP2,2013-01-04 07:06:00,
2013-01-03 23:11:00,30.5,3.9,30.33,NNW,331,3.0,6.0,32,0.00,,,0.02,WUHU216DAVISVP2,2013-01-04 07:11:00,
2013-01-03 23:16:00,29.6,3.8,30.33,NNW,331,6.0,6.0,33,0.00,,,0.02,WUHU216DAVISVP2,2013-01-04 07:16:00,
2013-01-03 23:22:00,30.3,6.3,30.33,NNW,331,5.0,7.0,36,0.00,,,0.02,WUHU216DAVISVP2,2013-01-04 07:22:00,
2013-01-03 23:27:00,30.7,4.7,30.33,NNW,331,3.0,7.0,33,0.00,,,0.02,WUHU216DAVISVP2,2013-01-04 07:27:00,
2013-01-03 23:32:00,30.6,5.9,30.33,NNW,331,5.0,7.0,35,0.00,,,0.02,WUHU216DAVISVP2,2013-01-04 07:32:00,
2013-01-03 23:37:00,31.2,5.8,30.33,NNW,331,5.0,7.0,34,0.00,,,0.02,WUHU216DAVISVP2,2013-01-04 07:37:00,
2013-01-03 23:43:00,30.0,5.0,30.33,NNW,331,3.0,6.0,34,0.00,,,0.02,WUHU216DAVISVP2,2013-01-04 07:43:00,
2013-01-03 23:48:00,30.1,6.1,30.33,NNW,331,5.0,6.0,36,0.00,,,0.02,WUHU216DAVISVP2,2013-01-04 07:48:00,
2013-01-03 23:53:00,30.3,5.0,30.33,NNW,331,3.0,6.0,34,0.00,,,0.02,WUHU216DAVISVP2,2013-01-04 07:53:00,
2013-01-03 23:58:00,29.3,4.1,30.33,NNW,331,4.0,6.0,34,0.00,,,0.02,WUHU216DAVISVP2,2013-01-04 07:58:00,